Time,TemperatureF,DewpointF,PressureIn,WindDirection,WindDirectionDegrees,WindSpeedMPH,WindSpeedGustMPH,Humidity,HourlyPrecipIn,Conditions,Clouds,dailyrainin,SolarRadiationWatts/m^2,SoftwareType,DateUTC
2013-04-18 00:02:00,39.0,34.0,-100.00,ESE,118,0.0,8.0,83,0.00,,,0.00,0.000000,,2013-04-18 07:02:00,
2013-04-18 00:11:00,39.0,35.0,-100.00,ESE,113,0.0,5.0,87,0.00,,,0.00,0.000000,,2013-04-18 07:11:00,
2013-04-18 00:42:00,39.0,35.0,-100.00,ESE,113,0.0,5.0,87,0.00,,,0.00,0.000000,,2013-04-18 07:42:00,
2013-04-18 00:52:00,39.0,35.0,-100.00,ESE,113,0.0,5.0,87,0.00,,,0.00,0.000000,,2013-04-18 07:52:00,
2013-04-18 01:02:00,39.0,35.0,-100.00,ESE,113,0.0,5.0,87,0.00,,,0.00,0.000000,,2013-04-18 08:02:00,
2013-04-18 01:11:00,38.0,34.0,-100.00,East,101,0.0,3.0,85,0.00,,,0.00,0.000000,,2013-04-18 08:11:00,
2013-04-18 01:32:00,38.0,34.0,-100.00,East,101,0.0,3.0,85,0.00,,,0.00,0.000000,,2013-04-18 08:32:00,
2013-04-18 01:42:00,38.0,34.0,-100.00,East,101,0.0,3.0,85,0.00,,,0.00,0.000000,,2013-04-18 08:42:00,
2013-04-18 01:52:00,38.0,34.0,-100.00,East,101,0.0,3.0,85,0.00,,,0.00,0.000000,,2013-04-18 08:52:00,
2013-04-18 02:02:00,38.0,34.0,-100.00,East,101,0.0,3.0,85,0.00,,,0.00,0.000000,,2013-04-18 09:02:00,
2013-04-18 02:11:00,38.0,35.0,-100.00,ESE,114,0.0,0.0,88,0.00,,,0.00,0.000000,,2013-04-18 09:11:00,
2013-04-18 02:33:00,38.0,35.0,-100.00,ESE,114,0.0,0.0,88,0.00,,,0.00,0.000000,,2013-04-18 09:33:00,
2013-04-18 02:43:00,38.0,35.0,-100.00,ESE,114,0.0,0.0,88,0.00,,,0.00,0.000000,,2013-04-18 09:43:00,
2013-04-18 02:53:00,38.0,35.0,-100.00,ESE,114,0.0,0.0,88,0.00,,,0.00,0.000000,,2013-04-18 09:53:00,
2013-04-18 03:03:00,38.0,35.0,-100.00,ESE,114,0.0,0.0,88,0.00,,,0.00,0.000000,,2013-04-18 10:03:00,
2013-04-18 03:11:00,38.0,35.0,-100.00,SSE,162,0.0,4.0,88,0.00,,,0.00,0.000000,,2013-04-18 10:11:00,
2013-04-18 03:33:00,38.0,35.0,-100.00,SSE,162,0.0,4.0,88,0.00,,,0.00,0.000000,,2013-04-18 10:33:00,
2013-04-18 03:42:00,38.0,35.0,-100.00,SSE,162,0.0,4.0,88,0.00,,,0.00,0.000000,,2013-04-18 10:42:00,
2013-04-18 03:52:00,38.0,35.0,-100.00,SSE,162,0.0,4.0,88,0.00,,,0.00,0.000000,,2013-04-18 10:52:00,
2013-04-18 04:02:00,38.0,35.0,-100.00,SSE,162,0.0,4.0,88,0.00,,,0.00,0.000000,,2013-04-18 11:02:00,
2013-04-18 04:11:00,38.0,35.0,-100.00,SSE,149,0.0,5.0,90,0.00,,,0.00,0.000000,,2013-04-18 11:11:00,
2013-04-18 04:32:00,38.0,35.0,-100.00,SSE,149,0.0,5.0,90,0.00,,,0.00,0.000000,,2013-04-18 11:32:00,
2013-04-18 04:42:00,38.0,35.0,-100.00,SSE,149,0.0,5.0,90,0.00,,,0.00,0.000000,,2013-04-18 11:42:00,
2013-04-18 04:52:00,38.0,35.0,-100.00,SSE,149,0.0,5.0,90,0.00,,,0.00,0.000000,,2013-04-18 11:52:00,
2013-04-18 05:02:00,38.0,35.0,-100.00,SSE,149,0.0,5.0,90,0.00,,,0.00,0.000000,,2013-04-18 12:02:00,
2013-04-18 05:11:00,37.0,35.0,-100.00,SSE,167,0.0,0.0,92,0.00,,,0.00,0.000000,,2013-04-18 12:11:00,
2013-04-18 05:32:00,37.0,35.0,-100.00,SSE,167,0.0,0.0,92,0.00,,,0.00,0.000000,,2013-04-18 12:32:00,
2013-04-18 05:42:00,37.0,35.0,-100.00,SSE,167,0.0,0.0,92,0.00,,,0.00,0.000000,,2013-04-18 12:42:00,
2013-04-18 05:52:00,37.0,35.0,-100.00,SSE,167,0.0,0.0,92,0.00,,,0.00,0.000000,,2013-04-18 12:52:00,
2013-04-18 06:02:00,37.0,35.0,-100.00,SSE,167,0.0,0.0,92,0.00,,,0.00,0.000000,,2013-04-18 13:02:00,
2013-04-18 06:11:00,37.0,35.0,-100.00,ENE,65,0.0,0.0,91,0.00,,,0.00,0.000000,,2013-04-18 13:11:00,
2013-04-18 06:33:00,37.0,35.0,-100.00,ENE,65,0.0,0.0,91,0.00,,,0.00,0.000000,,2013-04-18 13:33:00,
2013-04-18 06:42:00,37.0,35.0,-100.00,ENE,65,0.0,0.0,91,0.00,,,0.00,0.000000,,2013-04-18 13:42:00,
2013-04-18 06:52:00,37.0,35.0,-100.00,ENE,65,0.0,0.0,91,0.00,,,0.00,0.000000,,2013-04-18 13:52:00,
2013-04-18 07:02:00,37.0,35.0,-100.00,ENE,65,0.0,0.0,91,0.00,,,0.00,0.000000,,2013-04-18 14:02:00,
2013-04-18 07:11:00,36.0,34.0,-100.00,West,260,0.0,0.0,91,0.00,,,0.00,9.000000,,2013-04-18 14:11:00,
2013-04-18 07:33:00,36.0,34.0,-100.00,West,260,0.0,0.0,91,0.00,,,0.00,9.000000,,2013-04-18 14:33:00,
2013-04-18 07:43:00,36.0,34.0,-100.00,West,260,0.0,0.0,91,0.00,,,0.00,9.000000,,2013-04-18 14:43:00,
2013-04-18 07:52:00,36.0,34.0,-100.00,West,260,0.0,0.0,91,0.00,,,0.00,9.000000,,2013-04-18 14:52:00,
2013-04-18 08:02:00,36.0,34.0,-100.00,West,260,0.0,0.0,91,0.00,,,0.00,9.000000,,2013-04-18 15:02:00,
2013-04-18 08:11:00,37.0,34.0,-100.00,SSW,208,0.0,0.0,90,0.00,,,0.00,43.000000,,2013-04-18 15:11:00,
2013-04-18 08:33:00,37.0,34.0,-100.00,SSW,208,0.0,0.0,90,0.00,,,0.00,43.000000,,2013-04-18 15:33:00,
2013-04-18 08:43:00,37.0,34.0,-100.00,SSW,208,0.0,0.0,90,0.00,,,0.00,43.000000,,2013-04-18 15:43:00,
2013-04-18 08:53:00,37.0,34.0,-100.00,SSW,208,0.0,0.0,90,0.00,,,0.00,43.000000,,2013-04-18 15:53:00,
2013-04-18 09:03:00,37.0,34.0,-100.00,SSW,208,0.0,0.0,90,0.00,,,0.00,43.000000,,2013-04-18 16:03:00,
2013-04-18 09:11:00,41.0,37.0,-100.00,South,190,0.0,0.0,87,0.00,,,0.00,160.000000,,2013-04-18 16:11:00,
2013-04-18 09:33:00,41.0,37.0,-100.00,South,190,0.0,0.0,87,0.00,,,0.00,160.000000,,2013-04-18 16:33:00,
2013-04-18 09:43:00,41.0,37.0,-100.00,South,190,0.0,0.0,87,0.00,,,0.00,160.000000,,2013-04-18 16:43:00,
2013-04-18 09:53:00,41.0,37.0,-100.00,South,190,0.0,0.0,87,0.00,,,0.00,160.000000,,2013-04-18 16:53:00,
2013-04-18 10:02:00,41.0,37.0,-100.00,South,190,0.0,0.0,87,0.00,,,0.00,160.000000,,2013-04-18 17:02:00,
2013-04-18 10:11:00,41.0,37.0,-100.00,SSE,159,0.0,4.0,87,0.01,,,0.01,194.000000,,2013-04-18 17:11:00,
2013-04-18 10:43:00,41.0,37.0,-100.00,SSE,159,0.0,4.0,87,0.01,,,0.01,194.000000,,2013-04-18 17:43:00,
2013-04-18 10:52:00,41.0,37.0,-100.00,SSE,159,0.0,4.0,87,0.01,,,0.01,194.000000,,2013-04-18 17:52:00,
2013-04-18 11:02:00,41.0,37.0,-100.00,SSE,159,0.0,4.0,87,0.01,,,0.01,194.000000,,2013-04-18 18:02:00,
2013-04-18 11:11:00,41.0,38.0,-100.00,South,183,0.0,5.0,88,0.01,,,0.02,203.000000,,2013-04-18 18:11:00,
2013-04-18 11:43:00,41.0,38.0,-100.00,South,183,0.0,5.0,88,0.01,,,0.02,203.000000,,2013-04-18 18:43:00,
2013-04-18 11:52:00,41.0,38.0,-100.00,South,183,0.0,5.0,88,0.01,,,0.02,203.000000,,2013-04-18 18:52:00,
2013-04-18 12:02:00,41.0,38.0,-100.00,South,183,0.0,5.0,88,0.01,,,0.02,203.000000,,2013-04-18 19:02:00,
2013-04-18 12:11:00,45.0,40.0,-100.00,SW,232,0.0,5.0,81,0.01,,,0.03,269.000000,,2013-04-18 19:11:00,
2013-04-18 12:32:00,45.0,40.0,-100.00,SW,232,0.0,5.0,81,0.01,,,0.03,269.000000,,2013-04-18 19:32:00,
2013-04-18 12:42:00,45.0,40.0,-100.00,SW,232,0.0,5.0,81,0.01,,,0.03,269.000000,,2013-04-18 19:42:00,
2013-04-18 12:52:00,45.0,40.0,-100.00,SW,232,0.0,5.0,81,0.01,,,0.03,269.000000,,2013-04-18 19:52:00,
2013-04-18 13:02:00,45.0,40.0,-100.00,SW,232,0.0,5.0,81,0.01,,,0.03,269.000000,,2013-04-18 20:02:00,
2013-04-18 13:11:00,46.0,40.0,-100.00,SSW,206,0.0,5.0,79,0.00,,,0.03,280.000000,,2013-04-18 20:11:00,
2013-04-18 13:42:00,46.0,40.0,-100.00,SSW,206,0.0,5.0,79,0.00,,,0.03,280.000000,,2013-04-18 20:42:00,
2013-04-18 13:52:00,46.0,40.0,-100.00,SSW,206,0.0,5.0,79,0.00,,,0.03,280.000000,,2013-04-18 20:52:00,
2013-04-18 14:02:00,46.0,40.0,-100.00,SSW,206,0.0,5.0,79,0.00,,,0.03,280.000000,,2013-04-18 21:02:00,
2013-04-18 15:11:00,47.0,40.0,-100.00,SSE,164,0.0,5.0,77,-99.99,,,0.03,205.000000,,2013-04-18 22:11:00,
2013-04-18 15:42:00,47.0,40.0,-100.00,SSE,164,0.0,5.0,77,-99.99,,,0.03,205.000000,,2013-04-18 22:42:00,
2013-04-18 15:52:00,47.0,40.0,-100.00,SSE,164,0.0,5.0,77,-99.99,,,0.03,205.000000,,2013-04-18 22:52:00,
2013-04-18 16:03:00,47.0,40.0,-100.00,SSE,164,0.0,5.0,77,-99.99,,,0.03,205.000000,,2013-04-18 23:03:00,
2013-04-18 16:11:00,48.0,41.0,-100.00,SSE,164,0.0,5.0,76,0.00,,,0.03,222.000000,,2013-04-18 23:11:00,
2013-04-18 16:32:00,48.0,41.0,-100.00,SSE,164,0.0,5.0,76,0.00,,,0.03,222.000000,,2013-04-18 23:32:00,
2013-04-18 16:42:00,48.0,41.0,-100.00,SSE,164,0.0,5.0,76,0.00,,,0.03,222.000000,,2013-04-18 23:42:00,
2013-04-18 16:52:00,48.0,41.0,-100.00,SSE,164,0.0,5.0,76,0.00,,,0.03,222.000000,,2013-04-18 23:52:00,
2013-04-18 17:01:00,48.0,41.0,-100.00,SSE,164,0.0,5.0,76,0.00,,,0.03,222.000000,,2013-04-19 00:01:00,
2013-04-18 18:11:00,45.0,42.0,-100.00,South,182,0.0,8.0,89,-99.99,,,0.03,73.000000,,2013-04-19 01:11:00,
2013-04-18 18:42:00,45.0,42.0,-100.00,South,182,0.0,8.0,89,-99.99,,,0.03,73.000000,,2013-04-19 01:42:00,
2013-04-18 18:52:00,45.0,42.0,-100.00,South,182,0.0,8.0,89,-99.99,,,0.03,73.000000,,2013-04-19 01:52:00,
2013-04-18 19:01:00,45.0,42.0,-100.00,South,182,0.0,8.0,89,-99.99,,,0.03,73.000000,,2013-04-19 02:01:00,
2013-04-18 19:11:00,44.0,42.0,-100.00,South,181,0.0,7.0,94,0.06,,,0.09,32.000000,,2013-04-19 02:11:00,
2013-04-18 19:32:00,44.0,42.0,-100.00,South,181,0.0,7.0,94,0.06,,,0.09,32.000000,,2013-04-19 02:32:00,
2013-04-18 19:42:00,44.0,42.0,-100.00,South,181,0.0,7.0,94,0.06,,,0.09,32.000000,,2013-04-19 02:42:00,
2013-04-18 19:52:00,44.0,42.0,-100.00,South,181,0.0,7.0,94,0.06,,,0.09,32.000000,,2013-04-19 02:52:00,
2013-04-18 20:01:00,44.0,42.0,-100.00,South,181,0.0,7.0,94,0.06,,,0.09,32.000000,,2013-04-19 03:01:00,
2013-04-18 20:11:00,42.0,41.0,-100.00,SSE,164,0.0,5.0,96,0.04,,,0.13,6.000000,,2013-04-19 03:11:00,
2013-04-18 20:43:00,42.0,41.0,-100.00,SSE,164,0.0,5.0,96,0.04,,,0.13,6.000000,,2013-04-19 03:43:00,
2013-04-18 20:53:00,42.0,41.0,-100.00,SSE,164,0.0,5.0,96,0.04,,,0.13,6.000000,,2013-04-19 03:53:00,
2013-04-18 21:03:00,42.0,41.0,-100.00,SSE,164,0.0,5.0,96,0.04,,,0.13,6.000000,,2013-04-19 04:03:00,
2013-04-18 21:11:00,42.0,41.0,-100.00,SE,141,0.0,6.0,97,0.04,,,0.17,0.000000,,2013-04-19 04:11:00,
2013-04-18 21:33:00,42.0,41.0,-100.00,SE,141,0.0,6.0,97,0.04,,,0.17,0.000000,,2013-04-19 04:33:00,
2013-04-18 21:43:00,42.0,41.0,-100.00,SE,141,0.0,6.0,97,0.04,,,0.17,0.000000,,2013-04-19 04:43:00,
2013-04-18 21:52:00,42.0,41.0,-100.00,SE,141,0.0,6.0,97,0.04,,,0.17,0.000000,,2013-04-19 04:52:00,
2013-04-18 22:03:00,42.0,41.0,-100.00,SE,141,0.0,6.0,97,0.04,,,0.17,0.000000,,2013-04-19 05:03:00,
2013-04-18 22:11:00,42.0,41.0,-100.00,SW,220,0.0,0.0,97,0.04,,,0.21,0.000000,,2013-04-19 05:11:00,
2013-04-18 22:32:00,42.0,41.0,-100.00,SW,220,0.0,0.0,97,0.04,,,0.21,0.000000,,2013-04-19 05:32:00,
2013-04-18 22:42:00,42.0,41.0,-100.00,SW,220,0.0,0.0,97,0.04,,,0.21,0.000000,,2013-04-19 05:42:00,
2013-04-18 22:52:00,42.0,41.0,-100.00,SW,220,0.0,0.0,97,0.04,,,0.21,0.000000,,2013-04-19 05:52:00,
2013-04-18 23:01:00,42.0,41.0,-100.00,SW,220,0.0,0.0,97,0.04,,,0.21,0.000000,,2013-04-19 06:01:00,
2013-04-18 23:11:00,42.0,41.0,-100.00,WNW,299,0.0,3.0,97,0.04,,,0.25,0.000000,,2013-04-19 06:11:00,
2013-04-18 23:32:00,42.0,41.0,-100.00,WNW,299,0.0,3.0,97,0.04,,,0.25,0.000000,,2013-04-19 06:32:00,
2013-04-18 23:42:00,42.0,41.0,-100.00,WNW,299,0.0,3.0,97,0.04,,,0.25,0.000000,,2013-04-19 06:42:00,
2013-04-18 23:53:00,42.0,41.0,-100.00,WNW,299,0.0,3.0,97,0.04,,,0.25,0.000000,,2013-04-19 06:53:00,